Slidell, LA

1:25 AM CDT on October 18, 2017 (GMT -0500)
Slidell

Weather History for KASD - December, 2013

Change the Weather History Date:

Thursday, December 5, 2013

  Actual Average (KNEW) Record (KNEW)
Temperature  
Mean Temperature 74 °F -  
Max Temperature 79 °F 65 °F 84 °F (1998)
Min Temperature 69 °F 51 °F 28 °F (1974)
Cooling Degree Days 9    
Growing Degree Days 24 (Base 50)    
Moisture  
Dew Point 71 °F    
Average Humidity 92    
Maximum Humidity 100    
Minimum Humidity 79    
Precipitation  
Precipitation 0.01 in - - ()
Sea Level Pressure  
Sea Level Pressure 29.97 in    
Wind  
Wind Speed 6 mph (South)    
Max Wind Speed 12 mph    
Max Gust Speed -    
Visibility 6 miles    
Events Rain    
Averages and records for this station are not official NWS values.
T = Trace of Precipitation, MM = Missing Value Source: NWS Daily Summary

Daily Weather History Graph

Daily Weather History Graph

Search for Another Location

Airport or City:

Trip Planner

Search our weather history database for the weather conditions in past years. The results will help you decide how hot, cold, wet, or windy it might be!

Date:

Astronomy

Dec. 05, 2013 Rise Set
Actual Time 6:41 AM CST 4:58 PM CST
Civil Twilight 6:15 AM CST 5:24 PM CST
Nautical Twilight 5:45 AM CST 5:54 PM CST
Astronomical Twilight 5:16 AM CST 6:23 PM CST
Moon 9:07 AM CST (12/5) 8:12 PM CST (12/5)
Length of Visible Light 11h 09m
Length of Day
10h 16m
Waxing Crescent, 11% of the Moon is Illuminated
Dec 5
Waxing Crescent
Dec 9
First Quarter
Dec 17
Full
Dec 25
Last Quarter
Jan 1
New

Hourly Weather History & Observations

Time (CST) Temp. Dew Point Humidity Pressure Visibility Wind Dir Wind Speed Gust Speed Precip Events Conditions
12:53 AM 72.0 °F 70.0 °F 93% 29.94 in 5.0 mi South 5.8 mph - N/A   Overcast
1:00 AM 71.6 °F 69.8 °F 94% 29.94 in 5.0 mi South 5.8 mph - N/A   Overcast
1:53 AM 72.0 °F 70.0 °F 93% 29.94 in 6.0 mi South 5.8 mph - N/A   Overcast
2:09 AM 71.6 °F 69.8 °F 94% 29.93 in 6.0 mi South 5.8 mph - N/A   Overcast
2:53 AM 72.0 °F 70.0 °F 93% 29.94 in 6.0 mi South 5.8 mph - N/A   Overcast
3:53 AM 72.0 °F 70.0 °F 93% 29.95 in 5.0 mi South 6.9 mph - N/A   Overcast
4:53 AM 71.1 °F 70.0 °F 96% 29.95 in 3.0 mi South 4.6 mph - N/A   Overcast
5:01 AM 71.6 °F 69.8 °F 94% 29.96 in 3.0 mi South 4.6 mph - N/A   Overcast
5:21 AM 71.6 °F 69.8 °F 94% 29.96 in 2.0 mi South 4.6 mph - N/A   Overcast
5:34 AM 71.6 °F 69.8 °F 94% 29.96 in 3.0 mi South 5.8 mph - N/A   Overcast
5:53 AM 71.1 °F 70.0 °F 96% 29.97 in 5.0 mi South 4.6 mph - N/A   Overcast
6:15 AM 69.8 °F 69.8 °F 100% 29.97 in 1.8 mi SSE 5.8 mph - N/A   Overcast
6:38 AM 69.8 °F 69.8 °F 100% 29.98 in 0.8 mi South 4.6 mph - N/A   Mist
6:53 AM 71.1 °F 70.0 °F 96% 29.98 in 0.8 mi South 3.5 mph - N/A   Mist
7:03 AM 71.6 °F 69.8 °F 94% 29.98 in 1.2 mi South 4.6 mph - N/A   Overcast
7:12 AM 71.6 °F 69.8 °F 94% 29.98 in 3.0 mi South 4.6 mph - N/A   Overcast
7:29 AM 71.6 °F 69.8 °F 94% 29.99 in 1.8 mi South 5.8 mph - N/A   Overcast
7:53 AM 72.0 °F 71.1 °F 97% 30.00 in 1.5 mi South 4.6 mph - N/A   Overcast
8:06 AM 71.6 °F 71.6 °F 100% 30.00 in 2.0 mi South 3.5 mph - N/A   Overcast
8:26 AM 71.6 °F 71.6 °F 100% 30.01 in 4.0 mi South 4.6 mph - N/A   Overcast
8:53 AM 72.0 °F 71.1 °F 97% 30.02 in 6.0 mi South 4.6 mph - N/A   Overcast
9:02 AM 73.4 °F 71.6 °F 94% 30.02 in 7.0 mi South 5.8 mph - N/A   Overcast
9:53 AM 73.9 °F 71.1 °F 91% 30.03 in 8.0 mi South 5.8 mph - 0.00 in   Overcast
10:08 AM 75.2 °F 71.6 °F 89% 30.02 in 8.0 mi South 6.9 mph - N/A   Overcast
10:53 AM 75.0 °F 72.0 °F 90% 30.02 in 8.0 mi South 9.2 mph - N/A   Overcast
11:53 AM 77.0 °F 72.0 °F 84% 29.99 in 10.0 mi South 8.1 mph - 0.00 in   Overcast
12:06 PM 77.0 °F 71.6 °F 83% 29.98 in 9.0 mi SSW 6.9 mph - N/A   Overcast
12:17 PM 75.2 °F 71.6 °F 89% 29.98 in 9.0 mi SSW 5.8 mph - N/A   Overcast
12:53 PM 78.1 °F 72.0 °F 81% 29.96 in 10.0 mi South 8.1 mph - N/A   Mostly Cloudy
1:49 PM 77.0 °F 71.6 °F 83% 29.95 in 10.0 mi South 9.2 mph - N/A   Overcast
1:53 PM 75.9 °F 72.0 °F 87% 29.95 in 5.0 mi South 6.9 mph - 0.01 in Rain Light Rain
2:08 PM 77.0 °F 73.4 °F 89% 29.94 in 10.0 mi South 8.1 mph - 0.00 in   Mostly Cloudy
2:53 PM 79.0 °F 72.0 °F 79% 29.94 in 10.0 mi SSW 11.5 mph - 0.00 in   Scattered Clouds
3:53 PM 78.1 °F 72.0 °F 81% 29.93 in 10.0 mi South 8.1 mph - N/A   Mostly Cloudy
4:53 PM 75.9 °F 72.0 °F 87% 29.95 in 9.0 mi South 8.1 mph - N/A   Overcast
5:53 PM 73.9 °F 71.1 °F 91% 29.95 in 8.0 mi South 8.1 mph - N/A   Overcast
6:13 PM 73.4 °F 71.6 °F 94% 29.95 in 8.0 mi South 9.2 mph - N/A   Overcast
6:53 PM 73.9 °F 71.1 °F 91% 29.96 in 8.0 mi South 9.2 mph - N/A   Overcast
7:53 PM 73.9 °F 71.1 °F 91% 29.97 in 7.0 mi South 8.1 mph - 0.00 in Rain Light Rain
8:53 PM 73.9 °F 71.1 °F 91% 29.98 in 7.0 mi South 6.9 mph - 0.00 in   Overcast
9:53 PM 73.9 °F 71.1 °F 91% 29.99 in 8.0 mi South 6.9 mph - N/A   Overcast
10:53 PM 73.0 °F 71.1 °F 93% 29.99 in 8.0 mi South 6.9 mph - N/A   Overcast
11:53 PM 73.0 °F 71.1 °F 93% 29.98 in 7.0 mi South 10.4 mph - N/A   Overcast